This is the latest recevied weather packets stored in our database for station/object KI6PPU. If no packets are shown the sender has not sent any weather packets the latest 10 day(s).
| Time | Temp. | Humidity | Pressure | Rain* | Wind** | Luminosity | Snow |
|---|---|---|---|---|---|---|---|
| 1778118752 | 20° C | 72% | 1020.3 hPa | 0 mm | - | 32 W/m² | - |
| 1778118449 | 20° C | 72% | 1020.4 hPa | 0 mm | - | 33 W/m² | - |
| 1778118145 | 20.56° C | 71% | 1020.2 hPa | 0 mm | - | 35 W/m² | - |
| 1778117842 | 20.56° C | 71% | 1020.1 hPa | 0 mm | - | 37 W/m² | - |
| 1778117539 | 20.56° C | 71% | 1020.2 hPa | 0 mm | - | 38 W/m² | - |
| 1778117236 | 20.56° C | 71% | 1020.3 hPa | 0 mm | - | 39 W/m² | - |
| 1778116932 | 20.56° C | 70% | 1020.3 hPa | 0 mm | - | 40 W/m² | - |
| 1778116630 | 20.56° C | 70% | 1020.3 hPa | 0 mm | - | 42 W/m² | - |
| 1778116326 | 20.56° C | 70% | 1020.2 hPa | 0 mm | - | 44 W/m² | - |
| 1778116025 | 20.56° C | 69% | 1020.1 hPa | 0 mm | - | 44 W/m² | - |
| 1778115722 | 20.56° C | 70% | 1020.3 hPa | 0 mm | - | 45 W/m² | - |
| 1778115420 | 21.11° C | 69% | 1020.2 hPa | 0 mm | - | 48 W/m² | - |
| 1778115115 | 21.67° C | 65% | 1020.3 hPa | 0 mm | - | 84 W/m² | - |
| 1778114812 | 22.22° C | 65% | 1020.4 hPa | 0 mm | - | 163 W/m² | - |
| 1778114510 | 21.67° C | 65% | 1020.3 hPa | 0 mm | - | 154 W/m² | - |
| 1778114206 | 22.78° C | 66% | 1020.1 hPa | 0 mm | - | 186 W/m² | - |
| 1778113906 | 22.78° C | 64% | 1020.2 hPa | 0 mm | - | 356 W/m² | - |
| 1778113603 | 22.22° C | 64% | 1020.2 hPa | 0 mm | - | 261 W/m² | - |
| 1778113298 | 22.22° C | 65% | 1020.4 hPa | 0 mm | - | 388 W/m² | - |
| 1778112996 | 22.78° C | 64% | 1020.4 hPa | 0 mm | - | 382 W/m² | - |
| 1778112693 | 22.78° C | 64% | 1020.3 hPa | 0 mm | - | 207 W/m² | - |
| 1778112389 | 22.78° C | 63% | 1020.2 hPa | 0 mm | - | 314 W/m² | - |
| 1778112084 | 22.78° C | 64% | 1020.4 hPa | 0 mm | - | 420 W/m² | - |
| 1778111782 | 22.22° C | 67% | 1020.3 hPa | 0 mm | - | 379 W/m² | - |
| 1778111482 | 22.78° C | 64% | 1020.2 hPa | 0 mm | - | 456 W/m² | - |
* Rain latest hour (hover to see other rain measurements)
** Current wind speed in m/s (hover to see current wind gust speed)